QPF
0.08 0.07 0.09 0.10 0.13 0.15 0.14 0.15 0.17 0.15 0.13 0.13 0.12 0.09 0.08 0.09 0.11 0.09 0.05 0.05 0.04 0.03 0.02 0.02 0.02 0.02 0.01 0.01 0.01 0.01 0.01 0.01 0.01 0.02 0.03 0.03 0.04 0.04 0.04 0.05 0.04 0.03 0.02
0.09 0.10 0.11 0.13 0.16 0.17 0.16 0.15 0.18 0.18 0.12 0.10 0.09 0.08 0.07 0.06 0.09 0.10 0.06 0.03 0.02 0.02 0.03 0.03 0.02 0.01 0.01 0.01 0.01 0.00 0.00 0.01 0.01 0.01 0.02 0.03 0.04 0.04 0.05 0.05 0.04 0.04 0.03
0.07 0.09 0.10 0.10 0.12 0.14 0.15 0.14 0.16 0.19 0.18 0.15 0.11 0.08 0.09 0.08 0.08 0.08 0.07 0.04 0.03 0.02 0.03 0.02 0.02 0.01 0.01 0.00 0.00 0.00 0.00 0.00 0.00 0.00 0.01 0.01 0.02 0.02 0.03 0.03 0.04 0.04 0.04
0.06 0.07 0.05 0.06 0.11 0.11 0.12 0.13 0.13 0.13 0.14 0.13 0.10 0.06 0.05 0.05 0.05 0.04 0.03 0.04 0.04 0.03 0.02 0.01 0.01 0.01 0.01 0.01 0.00 0.00 0.00 0.00 0.01 0.01 0.00 0.00 0.00 0.01 0.01 0.02 0.02 0.02 0.03
0.06 0.05 0.04 0.05 0.08 0.11 0.11 0.11 0.11 0.11 0.09 0.07 0.07 0.07 0.06 0.04 0.04 0.04 0.03 0.03 0.04 0.03 0.01 0.01 0.01 0.00 0.01 0.01 0.00 0.00 0.00 0.00 0.01 0.01 0.00 0.00 0.00 0.00 0.00 0.00 0.00 0.01 0.01
0.04 0.04 0.04 0.09 0.08 0.08 0.10 0.10 0.11 0.10 0.08 0.07 0.07 0.06 0.05 0.04 0.04 0.03 0.03 0.03 0.03 0.03 0.02 0.01 0.00 0.00 0.01 0.00 0.00 0.00 0.00 0.00 0.00 0.01 0.00 0.00 0.00 0.00 0.00 0.00 0.00 0.00 0.00
0.03 0.02 0.02 0.03 0.06 0.06 0.07 0.09 0.11 0.09 0.08 0.05 0.04 0.04 0.05 0.05 0.05 0.04 0.04 0.03 0.03 0.02 0.02 0.01 0.00 0.00 0.00 0.00 0.00 0.00 0.00 0.00 0.00 0.00 0.00 0.00 0.00 0.00 0.00 0.00 0.00 0.00 0.00
0.03 0.02 0.02 0.02 0.03 0.04 0.04 0.05 0.07 0.08 0.07 0.05 0.03 0.04 0.04 0.04 0.05 0.04 0.03 0.03 0.02 0.02 0.02 0.02 0.01 0.00 0.00 0.00 0.00 0.00 0.00 0.00 0.00 0.00 0.00 0.00 0.00 0.00 0.00 0.00 0.00 0.00 0.00
0.02 0.02 0.02 0.02 0.02 0.03 0.04 0.03 0.05 0.08 0.09 0.09 0.08 0.08 0.07 0.04 0.04 0.04 0.05 0.04 0.03 0.02 0.02 0.01 0.01 0.00 0.00 0.00 0.00 0.00 0.00 0.00 0.00 0.00 0.00 0.00 0.00 0.00 0.00 0.00 0.00 0.00 0.00
0.02 0.03 0.02 0.01 0.01 0.02 0.03 0.04 0.06 0.09 0.11 0.13 0.13 0.10 0.10 0.08 0.07 0.06 0.05 0.05 0.05 0.04 0.02 0.02 0.01 0.01 0.00 0.00 0.00 0.00 0.00 0.00 0.00 0.00 0.00 0.00 0.00 0.00 0.00 0.00 0.00 0.00 0.00
0.02 0.03 0.02 0.01 0.01 0.02 0.02 0.03 0.05 0.07 0.08 0.08 0.11 0.12 0.12 0.12 0.10 0.09 0.07 0.06 0.06 0.05 0.04 0.03 0.02 0.02 0.02 0.01 0.01 0.00 0.00 0.00 0.00 0.00 0.00 0.00 0.00 0.00 0.00 0.00 0.00 0.00 0.00
0.04 0.04 0.03 0.03 0.03 0.03 0.03 0.04 0.04 0.04 0.05 0.07 0.09 0.13 0.13 0.13 0.12 0.10 0.09 0.08 0.08 0.08 0.06 0.05 0.04 0.04 0.03 0.02 0.01 0.00 0.00 0.00 0.00 0.00 0.00 0.00 0.00 0.00 0.00 0.00 0.00 0.00 0.00
0.06 0.08 0.05 0.03 0.03 0.03 0.03 0.03 0.03 0.03 0.05 0.06 0.09 0.11 0.11 0.12 0.11 0.09 0.08 0.07 0.07 0.08 0.08 0.05 0.05 0.04 0.03 0.02 0.01 0.01 0.00 0.00 0.00 0.00 0.00 0.00 0.00 0.00 0.00 0.00 0.00 0.00 0.00
0.06 0.08 0.11 0.05 0.02 0.02 0.02 0.02 0.02 0.03 0.04 0.06 0.07 0.07 0.09 0.09 0.09 0.09 0.08 0.06 0.05 0.07 0.08 0.05 0.04 0.04 0.03 0.02 0.02 0.02 0.01 0.01 0.00 0.00 0.00 0.00 0.00 0.00 0.00 0.00 0.01 0.00 0.00
0.04 0.04 0.06 0.07 0.06 0.04 0.03 0.02 0.02 0.03 0.03 0.05 0.06 0.06 0.07 0.08 0.09 0.09 0.08 0.07 0.06 0.06 0.08 0.07 0.05 0.04 0.04 0.02 0.02 0.02 0.01 0.01 0.01 0.01 0.01 0.01 0.01 0.01 0.01 0.01 0.01 0.00 0.00
0.03 0.03 0.04 0.03 0.03 0.04 0.04 0.05 0.04 0.03 0.04 0.05 0.06 0.06 0.07 0.07 0.06 0.08 0.08 0.07 0.06 0.07 0.08 0.09 0.07 0.05 0.03 0.03 0.03 0.02 0.02 0.02 0.02 0.01 0.01 0.01 0.01 0.01 0.01 0.01 0.01 0.00 0.00
0.03 0.03 0.03 0.03 0.04 0.07 0.09 0.07 0.06 0.07 0.07 0.06 0.05 0.04 0.05 0.06 0.05 0.06 0.08 0.08 0.07 0.07 0.07 0.07 0.09 0.07 0.05 0.04 0.04 0.03 0.03 0.03 0.03 0.02 0.02 0.01 0.01 0.02 0.01 0.01 0.01 0.01 0.01
0.03 0.02 0.03 0.05 0.08 0.10 0.10 0.09 0.06 0.06 0.07 0.06 0.05 0.05 0.04 0.06 0.07 0.08 0.08 0.08 0.08 0.07 0.07 0.06 0.07 0.07 0.06 0.06 0.06 0.05 0.05 0.04 0.04 0.03 0.02 0.01 0.01 0.02 0.01 0.01 0.01 0.01 0.01
0.04 0.04 0.04 0.05 0.06 0.07 0.08 0.07 0.05 0.04 0.06 0.06 0.06 0.05 0.04 0.05 0.06 0.06 0.08 0.07 0.08 0.08 0.06 0.06 0.07 0.08 0.08 0.08 0.08 0.08 0.07 0.06 0.04 0.03 0.03 0.02 0.01 0.02 0.02 0.02 0.01 0.01 0.01
0.04 0.05 0.07 0.08 0.08 0.07 0.07 0.08 0.07 0.05 0.06 0.06 0.06 0.06 0.06 0.05 0.05 0.05 0.08 0.09 0.08 0.09 0.09 0.07 0.05 0.05 0.06 0.07 0.09 0.10 0.08 0.06 0.05 0.04 0.04 0.03 0.03 0.02 0.03 0.03 0.02 0.02 0.02
0.05 0.06 0.08 0.11 0.09 0.09 0.09 0.11 0.14 0.12 0.08 0.07 0.07 0.08 0.08 0.09 0.09 0.07 0.07 0.07 0.07 0.08 0.09 0.08 0.08 0.07 0.08 0.11 0.11 0.10 0.08 0.07 0.06 0.05 0.04 0.04 0.04 0.03 0.02 0.02 0.02 0.02 0.01
0.07 0.05 0.05 0.06 0.09 0.12 0.14 0.16 0.13 0.13 0.11 0.09 0.09 0.09 0.10 0.10 0.11 0.11 0.10 0.09 0.10 0.10 0.09 0.10 0.11 0.10 0.11 0.10 0.09 0.09 0.09 0.09 0.07 0.07 0.06 0.04 0.03 0.02 0.02 0.02 0.01 0.01 0.01
0.06 0.05 0.04 0.06 0.13 0.17 0.15 0.17 0.15 0.12 0.11 0.08 0.07 0.07 0.09 0.10 0.09 0.09 0.09 0.09 0.09 0.09 0.10 0.11 0.12 0.10 0.08 0.08 0.09 0.09 0.09 0.08 0.06 0.05 0.04 0.03 0.03 0.02 0.02 0.01 0.01 0.01 0.01
0.06 0.05 0.05 0.06 0.11 0.18 0.18 0.17 0.16 0.13 0.10 0.11 0.09 0.09 0.12 0.11 0.10 0.09 0.08 0.08 0.08 0.09 0.09 0.10 0.10 0.08 0.08 0.09 0.09 0.08 0.09 0.09 0.07 0.06 0.05 0.05 0.03 0.03 0.02 0.02 0.02 0.01 0.01
0.04 0.05 0.05 0.05 0.07 0.09 0.15 0.20 0.20 0.17 0.14 0.13 0.12 0.09 0.10 0.11 0.11 0.09 0.10 0.10 0.11 0.10 0.10 0.10 0.10 0.08 0.08 0.08 0.08 0.07 0.07 0.07 0.07 0.07 0.06 0.06 0.05 0.05 0.04 0.03 0.03 0.02 0.02
0.03 0.06 0.07 0.06 0.06 0.08 0.11 0.15 0.19 0.18 0.15 0.11 0.11 0.11 0.10 0.10 0.09 0.10 0.11 0.12 0.12 0.11 0.11 0.12 0.10 0.08 0.08 0.06 0.05 0.04 0.04 0.04 0.04 0.04 0.04 0.04 0.04 0.03 0.03 0.03 0.04 0.04 0.05
MSLP
1007.03 1007.03 1007.01 1007.00 1007.02 1007.13 1007.37 1007.76 1008.31 1009.01 1009.81 1010.64 1011.46 1012.19 1012.80 1013.27 1013.60 1013.83 1014.00 1014.16 1014.36 1014.62 1014.96 1015.35 1015.78 1016.21 1016.61 1016.95 1017.24 1017.47 1017.67 1017.86 1018.05 1018.24 1018.45 1018.66 1018.83 1018.97 1019.04 1019.05 1019.00 1018.93 1018.85
1006.93 1006.94 1006.90 1006.85 1006.82 1006.87 1007.07 1007.44 1008.01 1008.77 1009.65 1010.60 1011.52 1012.34 1013.01 1013.50 1013.81 1014.00 1014.11 1014.22 1014.39 1014.64 1014.99 1015.42 1015.89 1016.35 1016.77 1017.12 1017.38 1017.58 1017.73 1017.87 1018.03 1018.21 1018.43 1018.67 1018.90 1019.08 1019.20 1019.24 1019.21 1019.13 1019.03
1006.73 1006.75 1006.72 1006.67 1006.63 1006.67 1006.84 1007.22 1007.81 1008.62 1009.58 1010.60 1011.61 1012.51 1013.23 1013.74 1014.04 1014.20 1014.28 1014.35 1014.49 1014.73 1015.08 1015.53 1016.02 1016.49 1016.91 1017.24 1017.47 1017.62 1017.72 1017.82 1017.95 1018.13 1018.37 1018.64 1018.91 1019.15 1019.31 1019.39 1019.38 1019.30 1019.19
1006.43 1006.48 1006.48 1006.46 1006.44 1006.50 1006.68 1007.06 1007.68 1008.51 1009.51 1010.60 1011.66 1012.61 1013.37 1013.90 1014.21 1014.37 1014.43 1014.49 1014.61 1014.84 1015.19 1015.64 1016.13 1016.60 1017.00 1017.30 1017.49 1017.60 1017.66 1017.73 1017.84 1018.02 1018.28 1018.58 1018.89 1019.17 1019.38 1019.49 1019.50 1019.42 1019.30
1006.08 1006.15 1006.21 1006.24 1006.27 1006.36 1006.57 1006.96 1007.58 1008.42 1009.42 1010.52 1011.61 1012.58 1013.36 1013.92 1014.26 1014.42 1014.50 1014.56 1014.69 1014.92 1015.27 1015.71 1016.18 1016.64 1017.02 1017.30 1017.47 1017.55 1017.59 1017.64 1017.74 1017.92 1018.19 1018.51 1018.86 1019.17 1019.40 1019.53 1019.54 1019.47 1019.34
1005.73 1005.84 1005.95 1006.05 1006.15 1006.28 1006.51 1006.90 1007.51 1008.32 1009.30 1010.37 1011.44 1012.41 1013.20 1013.78 1014.15 1014.35 1014.46 1014.55 1014.69 1014.94 1015.29 1015.72 1016.19 1016.63 1017.00 1017.26 1017.42 1017.49 1017.53 1017.57 1017.68 1017.87 1018.14 1018.47 1018.82 1019.14 1019.38 1019.51 1019.53 1019.45 1019.31
1005.44 1005.59 1005.76 1005.93 1006.09 1006.27 1006.52 1006.91 1007.47 1008.23 1009.14 1010.15 1011.17 1012.11 1012.90 1013.50 1013.90 1014.15 1014.30 1014.44 1014.62 1014.89 1015.25 1015.68 1016.15 1016.58 1016.94 1017.21 1017.37 1017.45 1017.50 1017.56 1017.68 1017.87 1018.14 1018.46 1018.80 1019.10 1019.33 1019.45 1019.46 1019.38 1019.23
1005.25 1005.43 1005.67 1005.91 1006.13 1006.35 1006.62 1006.98 1007.50 1008.18 1009.00 1009.92 1010.87 1011.75 1012.52 1013.13 1013.56 1013.86 1014.08 1014.27 1014.50 1014.80 1015.18 1015.62 1016.08 1016.51 1016.88 1017.16 1017.34 1017.46 1017.53 1017.62 1017.74 1017.94 1018.19 1018.49 1018.79 1019.06 1019.26 1019.37 1019.37 1019.28 1019.14
1005.16 1005.39 1005.69 1006.00 1006.28 1006.54 1006.81 1007.15 1007.61 1008.20 1008.92 1009.74 1010.59 1011.41 1012.14 1012.74 1013.21 1013.56 1013.83 1014.09 1014.37 1014.71 1015.11 1015.56 1016.02 1016.46 1016.84 1017.14 1017.35 1017.50 1017.61 1017.72 1017.86 1018.04 1018.27 1018.53 1018.79 1019.02 1019.18 1019.27 1019.26 1019.18 1019.05
1005.16 1005.45 1005.81 1006.18 1006.51 1006.80 1007.08 1007.40 1007.79 1008.30 1008.92 1009.62 1010.38 1011.12 1011.81 1012.40 1012.89 1013.28 1013.61 1013.93 1014.26 1014.63 1015.06 1015.51 1015.98 1016.43 1016.82 1017.14 1017.38 1017.57 1017.71 1017.84 1017.99 1018.16 1018.36 1018.58 1018.78 1018.97 1019.09 1019.16 1019.16 1019.10 1019.00
1005.19 1005.55 1005.97 1006.40 1006.77 1007.09 1007.38 1007.67 1008.02 1008.45 1008.98 1009.59 1010.26 1010.93 1011.56 1012.14 1012.63 1013.06 1013.44 1013.81 1014.18 1014.58 1015.02 1015.49 1015.96 1016.40 1016.80 1017.14 1017.41 1017.62 1017.79 1017.94 1018.08 1018.24 1018.41 1018.58 1018.74 1018.88 1018.98 1019.04 1019.05 1019.02 1018.96
1005.18 1005.61 1006.10 1006.56 1006.97 1007.32 1007.62 1007.91 1008.22 1008.61 1009.07 1009.61 1010.19 1010.80 1011.39 1011.94 1012.44 1012.89 1013.31 1013.71 1014.12 1014.54 1015.00 1015.47 1015.93 1016.37 1016.77 1017.11 1017.39 1017.62 1017.80 1017.96 1018.11 1018.25 1018.39 1018.53 1018.65 1018.76 1018.84 1018.89 1018.92 1018.93 1018.93
1005.09 1005.58 1006.10 1006.60 1007.03 1007.40 1007.72 1008.02 1008.34 1008.70 1009.12 1009.61 1010.14 1010.69 1011.24 1011.77 1012.27 1012.73 1013.17 1013.61 1014.04 1014.49 1014.95 1015.41 1015.87 1016.30 1016.69 1017.03 1017.31 1017.54 1017.74 1017.90 1018.04 1018.17 1018.29 1018.40 1018.50 1018.59 1018.66 1018.72 1018.77 1018.82 1018.86
1004.86 1005.38 1005.92 1006.43 1006.89 1007.28 1007.63 1007.95 1008.29 1008.66 1009.07 1009.54 1010.04 1010.56 1011.08 1011.59 1012.08 1012.55 1013.01 1013.47 1013.92 1014.38 1014.85 1015.31 1015.76 1016.17 1016.54 1016.87 1017.15 1017.38 1017.58 1017.74 1017.89 1018.01 1018.12 1018.22 1018.30 1018.37 1018.43 1018.50 1018.57 1018.65 1018.73
1004.47 1005.01 1005.54 1006.05 1006.51 1006.92 1007.31 1007.68 1008.06 1008.46 1008.90 1009.36 1009.86 1010.36 1010.86 1011.36 1011.85 1012.33 1012.80 1013.27 1013.74 1014.22 1014.69 1015.15 1015.58 1015.98 1016.34 1016.65 1016.92 1017.15 1017.34 1017.51 1017.66 1017.78 1017.89 1017.98 1018.06 1018.12 1018.18 1018.25 1018.32 1018.41 1018.51
1003.95 1004.47 1004.97 1005.46 1005.91 1006.35 1006.78 1007.21 1007.65 1008.11 1008.59 1009.09 1009.59 1010.10 1010.60 1011.09 1011.57 1012.06 1012.54 1013.03 1013.51 1014.00 1014.48 1014.94 1015.36 1015.75 1016.09 1016.38 1016.64 1016.86 1017.05 1017.22 1017.38 1017.51 1017.62 1017.72 1017.79 1017.86 1017.91 1017.96 1018.02 1018.10 1018.19
1003.35 1003.81 1004.26 1004.71 1005.17 1005.63 1006.11 1006.60 1007.12 1007.66 1008.20 1008.74 1009.27 1009.79 1010.30 1010.79 1011.27 1011.76 1012.25 1012.75 1013.26 1013.75 1014.24 1014.69 1015.11 1015.48 1015.81 1016.09 1016.33 1016.54 1016.73 1016.91 1017.07 1017.21 1017.34 1017.44 1017.52 1017.57 1017.61 1017.64 1017.67 1017.72 1017.77
1002.72 1003.11 1003.50 1003.91 1004.35 1004.84 1005.37 1005.93 1006.53 1007.15 1007.76 1008.36 1008.93 1009.48 1009.99 1010.49 1010.98 1011.47 1011.97 1012.48 1013.00 1013.50 1013.99 1014.44 1014.85 1015.21 1015.51 1015.77 1016.00 1016.20 1016.39 1016.57 1016.74 1016.90 1017.03 1017.15 1017.22 1017.27 1017.29 1017.29 1017.27 1017.27 1017.27
1002.14 1002.44 1002.77 1003.13 1003.56 1004.06 1004.63 1005.26 1005.94 1006.63 1007.32 1007.98 1008.59 1009.17 1009.71 1010.22 1010.72 1011.22 1011.72 1012.24 1012.76 1013.26 1013.75 1014.19 1014.59 1014.92 1015.21 1015.45 1015.65 1015.84 1016.02 1016.20 1016.38 1016.54 1016.69 1016.81 1016.89 1016.93 1016.92 1016.88 1016.82 1016.75 1016.69
1001.66 1001.87 1002.12 1002.44 1002.84 1003.34 1003.95 1004.63 1005.36 1006.12 1006.87 1007.59 1008.26 1008.87 1009.44 1009.97 1010.48 1010.99 1011.50 1012.02 1012.54 1013.04 1013.51 1013.94 1014.31 1014.62 1014.88 1015.10 1015.28 1015.45 1015.62 1015.79 1015.96 1016.14 1016.29 1016.41 1016.49 1016.52 1016.49 1016.42 1016.31 1016.19 1016.07
1001.31 1001.43 1001.60 1001.85 1002.22 1002.71 1003.31 1004.02 1004.79 1005.60 1006.40 1007.16 1007.88 1008.53 1009.14 1009.70 1010.23 1010.75 1011.28 1011.80 1012.31 1012.81 1013.27 1013.67 1014.02 1014.30 1014.53 1014.71 1014.87 1015.02 1015.16 1015.32 1015.49 1015.66 1015.82 1015.94 1016.02 1016.04 1016.00 1015.90 1015.77 1015.60 1015.43
1001.10 1001.12 1001.20 1001.38 1001.68 1002.13 1002.71 1003.40 1004.18 1005.01 1005.84 1006.65 1007.41 1008.11 1008.76 1009.36 1009.93 1010.48 1011.02 1011.55 1012.07 1012.55 1013.00 1013.38 1013.70 1013.96 1014.15 1014.31 1014.43 1014.56 1014.68 1014.83 1014.98 1015.14 1015.30 1015.42 1015.50 1015.51 1015.47 1015.36 1015.21 1015.02 1014.81
1001.00 1000.93 1000.91 1000.99 1001.20 1001.57 1002.09 1002.74 1003.50 1004.32 1005.17 1006.00 1006.80 1007.56 1008.26 1008.92 1009.54 1010.13 1010.70 1011.26 1011.78 1012.27 1012.70 1013.07 1013.37 1013.60 1013.78 1013.91 1014.01 1014.11 1014.22 1014.35 1014.49 1014.64 1014.78 1014.90 1014.98 1015.00 1014.96 1014.85 1014.69 1014.49 1014.27
1001.01 1000.83 1000.69 1000.66 1000.76 1001.02 1001.44 1002.02 1002.73 1003.52 1004.36 1005.22 1006.06 1006.87 1007.64 1008.37 1009.06 1009.71 1010.33 1010.92 1011.47 1011.97 1012.41 1012.77 1013.07 1013.29 1013.46 1013.58 1013.67 1013.76 1013.86 1013.97 1014.10 1014.24 1014.38 1014.49 1014.57 1014.59 1014.55 1014.45 1014.30 1014.10 1013.88
1001.09 1000.80 1000.55 1000.39 1000.35 1000.49 1000.80 1001.28 1001.91 1002.66 1003.48 1004.35 1005.24 1006.11 1006.95 1007.76 1008.53 1009.26 1009.95 1010.59 1011.18 1011.70 1012.16 1012.55 1012.85 1013.09 1013.26 1013.39 1013.49 1013.59 1013.69 1013.80 1013.92 1014.06 1014.18 1014.29 1014.36 1014.39 1014.35 1014.26 1014.11 1013.93 1013.71
1001.25 1000.86 1000.49 1000.20 1000.04 1000.04 1000.23 1000.60 1001.15 1001.84 1002.65 1003.53 1004.45 1005.38 1006.30 1007.19 1008.05 1008.86 1009.63 1010.33 1010.98 1011.55 1012.05 1012.46 1012.80 1013.07 1013.27 1013.44 1013.57 1013.69 1013.80 1013.93 1014.05 1014.18 1014.30 1014.40 1014.47 1014.48 1014.45 1014.36 1014.21 1014.02 1013.80
Thickness
5789 5786 5784 5780 5776 5771 5768 5765 5762 5759 5756 5754 5751 5748 5745 5746 5746 5747 5748 5747 5747 5746 5745 5744 5743 5742 5739 5738 5737 5735 5733 5731 5731 5726 5723 5723 5726 5725 5725 5724 5722 5721 5719
5780 5779 5778 5775 5772 5768 5766 5763 5761 5758 5757 5755 5753 5750 5746 5745 5745 5745 5745 5746 5745 5745 5744 5743 5741 5740 5738 5737 5736 5735 5731 5730 5730 5725 5718 5713 5715 5720 5724 5723 5722 5720 5719
5781 5777 5775 5773 5770 5766 5764 5763 5760 5758 5756 5754 5750 5747 5743 5740 5739 5740 5741 5743 5743 5743 5743 5742 5741 5739 5738 5736 5736 5734 5731 5727 5728 5728 5721 5712 5708 5713 5718 5721 5721 5720 5718
5783 5778 5775 5771 5769 5767 5765 5762 5759 5756 5755 5753 5749 5745 5741 5737 5738 5739 5740 5741 5741 5742 5742 5740 5740 5739 5738 5736 5736 5735 5733 5730 5726 5727 5727 5725 5721 5713 5711 5716 5719 5719 5718
5783 5778 5776 5773 5770 5767 5763 5760 5756 5754 5752 5751 5748 5745 5741 5739 5738 5738 5737 5737 5739 5740 5740 5740 5739 5738 5737 5737 5736 5734 5733 5731 5728 5726 5726 5724 5722 5720 5713 5709 5712 5715 5716
5784 5779 5776 5773 5768 5765 5761 5758 5754 5751 5750 5748 5746 5744 5740 5738 5736 5735 5734 5735 5736 5737 5738 5738 5738 5737 5737 5736 5735 5734 5733 5731 5730 5728 5727 5724 5721 5718 5715 5710 5709 5709 5713
5782 5777 5772 5768 5765 5762 5759 5757 5753 5750 5749 5747 5745 5743 5741 5739 5737 5736 5735 5734 5733 5735 5736 5737 5736 5736 5736 5735 5734 5733 5732 5731 5729 5728 5726 5725 5724 5723 5718 5713 5709 5708 5709
5780 5777 5773 5769 5766 5763 5760 5756 5753 5750 5749 5746 5744 5743 5741 5739 5738 5737 5736 5735 5735 5735 5736 5736 5735 5735 5735 5734 5733 5731 5730 5730 5728 5728 5726 5724 5724 5724 5721 5716 5710 5704 5703
5779 5776 5773 5769 5766 5763 5760 5757 5754 5751 5749 5747 5744 5741 5740 5739 5738 5737 5736 5735 5735 5735 5734 5734 5734 5734 5733 5732 5731 5729 5729 5728 5727 5726 5725 5723 5723 5722 5722 5719 5716 5707 5699
5777 5775 5773 5769 5767 5765 5762 5758 5755 5752 5750 5747 5744 5742 5740 5738 5737 5735 5734 5734 5734 5734 5733 5733 5732 5731 5731 5730 5729 5728 5727 5725 5724 5724 5722 5721 5720 5720 5719 5717 5715 5712 5705
5776 5774 5772 5770 5766 5762 5759 5756 5754 5751 5748 5746 5744 5742 5740 5738 5736 5734 5734 5734 5733 5732 5732 5732 5730 5729 5728 5728 5726 5725 5724 5723 5721 5721 5720 5718 5718 5716 5715 5714 5712 5709 5706
5774 5772 5769 5765 5762 5758 5756 5754 5752 5750 5748 5746 5743 5741 5739 5737 5735 5733 5733 5733 5732 5732 5731 5730 5729 5727 5726 5725 5724 5723 5722 5720 5719 5718 5717 5715 5715 5713 5712 5710 5708 5706 5704
5769 5767 5764 5761 5759 5758 5756 5754 5752 5750 5749 5746 5742 5739 5737 5736 5734 5734 5733 5732 5732 5731 5730 5729 5727 5726 5725 5723 5722 5721 5720 5718 5717 5716 5714 5713 5712 5709 5708 5706 5704 5702 5701
5765 5762 5761 5760 5758 5757 5756 5754 5752 5751 5748 5745 5742 5739 5737 5736 5736 5734 5733 5733 5732 5730 5729 5728 5727 5725 5724 5722 5721 5719 5718 5716 5716 5715 5713 5712 5710 5707 5705 5703 5700 5698 5696
5761 5761 5759 5759 5757 5756 5755 5754 5752 5750 5748 5744 5741 5739 5738 5737 5736 5735 5734 5733 5731 5730 5728 5727 5725 5724 5722 5721 5720 5718 5716 5714 5712 5712 5711 5711 5709 5708 5705 5702 5698 5696 5691
5760 5760 5760 5758 5757 5756 5755 5753 5751 5750 5747 5744 5741 5739 5738 5736 5736 5735 5733 5731 5729 5728 5726 5724 5723 5722 5722 5722 5720 5718 5715 5713 5710 5708 5708 5707 5706 5705 5703 5701 5699 5695 5690
5758 5758 5758 5758 5758 5757 5755 5752 5750 5748 5745 5742 5741 5739 5738 5736 5735 5734 5731 5730 5728 5726 5724 5723 5722 5720 5721 5720 5718 5716 5714 5711 5709 5707 5705 5704 5704 5702 5699 5697 5696 5693 5691
5755 5756 5757 5757 5757 5756 5754 5752 5749 5746 5743 5741 5740 5739 5737 5736 5734 5732 5730 5729 5727 5725 5723 5722 5721 5719 5719 5718 5716 5714 5712 5709 5707 5705 5703 5701 5700 5698 5695 5692 5690 5688 5686
5752 5754 5756 5756 5755 5753 5752 5749 5746 5744 5741 5740 5739 5739 5737 5734 5732 5730 5729 5728 5726 5724 5722 5721 5719 5717 5716 5716 5714 5711 5707 5705 5703 5703 5701 5699 5697 5696 5692 5688 5684 5682 5681
5749 5751 5753 5753 5751 5750 5749 5746 5744 5742 5740 5741 5740 5739 5737 5735 5732 5731 5729 5728 5726 5723 5722 5720 5718 5717 5715 5714 5711 5708 5704 5701 5700 5698 5698 5696 5694 5691 5688 5684 5680 5676 5676
5743 5747 5747 5747 5748 5748 5747 5744 5742 5742 5743 5742 5740 5738 5736 5734 5732 5729 5728 5726 5724 5721 5719 5717 5716 5714 5713 5711 5708 5705 5702 5699 5696 5694 5692 5691 5690 5687 5683 5680 5677 5675 5672
5735 5739 5740 5741 5744 5745 5745 5743 5741 5743 5743 5741 5738 5736 5735 5733 5731 5727 5725 5723 5721 5717 5714 5712 5711 5710 5709 5707 5705 5701 5699 5697 5693 5691 5689 5688 5685 5682 5678 5675 5673 5669 5665
5727 5730 5732 5735 5738 5740 5740 5739 5739 5740 5739 5736 5734 5733 5731 5729 5728 5724 5721 5718 5716 5713 5710 5707 5705 5704 5704 5703 5701 5698 5695 5692 5689 5688 5685 5683 5679 5676 5673 5670 5666 5662 5657
5718 5721 5724 5727 5729 5733 5735 5735 5736 5736 5734 5731 5730 5728 5726 5724 5723 5720 5718 5715 5712 5709 5707 5704 5702 5700 5698 5696 5694 5692 5689 5685 5682 5680 5678 5675 5672 5669 5666 5662 5659 5654 5650
5710 5713 5716 5719 5722 5726 5727 5730 5731 5730 5727 5725 5723 5722 5721 5719 5715 5712 5709 5709 5708 5707 5705 5703 5700 5696 5692 5691 5690 5687 5684 5681 5677 5673 5669 5666 5662 5659 5656 5653 5650 5646 5641
5702 5705 5708 5711 5715 5718 5720 5723 5725 5724 5722 5719 5717 5715 5713 5711 5708 5705 5700 5698 5699 5698 5698 5697 5695 5691 5688 5685 5683 5680 5678 5675 5671 5665 5661 5658 5654 5650 5647 5644 5640 5636 5632